Find Starlink 31426

NORAD ID: 59249 Int'l Des: 2024-049 Owner: SPXS Country: US Constellation: starlink operational
LEOCIRCULAR

当前视图

正在加载3D地球...

About Starlink 31426

Starlink 31426 (NORAD 59249) is a starlink constellation satellite (v2 mini) launched Mar 16, 2024 by SPXS of US. It operates in LEO, CIRCULAR orbit with a mass of 730.00 kg.

即将过境

Passes for default location (London). Set your location on the main map for personalized predictions.

高度历史

Loading altitude history...

两行轨道根数

1 59249U 24049U 26237.38621862 -.00000563 00000-0 -10949-4 0 9997
2 59249 43.0007 271.0233 0001185 275.2574 84.8142 15.27575633138193
Epoch: Aug 25, 2026 • Age: 28 hours

当前状态

高度 495.6 km
远地点 / 近地点 N/A
速度 7.62 km/s
星下点 -43.09°S, 0.85°W
发射日期 Mar 16, 2024
运行时间 2.4 years
类型 internet

技术详情

分类 Payload
质量 730.00 kg
干质量 700.00 kg
总质量 730.00 kg
长度 0.30 m
直径 4.10 m
跨度 29.00 m
形状 Box + pan
制造商 SPXS
平台类型 Starlink V2M
阶段状态 In Orbit
所有者/国家 SPXS/US

Most Searched